Regional Weather Roundup
Issued by NWS

Home | Current Version | Previous Version | Graphics & Text | Print | Product List | Glossary On
Versions: 1 2 3 4 5 6 7 8 9 10 11 12 13 14 15 16 17 18 19 20 21 22 23 24 25 26 27 28 29 30 31 32 33 34 35 36 37 38 39 40 41 42 43 44 45 46 47 48 49 50
000
ASUS45 KTFX 310510
RWRMT
MONTANA REGIONAL WEATHER ROUNDUP
NATIONAL WEATHER SERVICE GREAT FALLS MT
1100 PM MDT SAT JUL 30 2016

NOTE: "FAIR" INDICATES FEW OR NO CLOUDS BELOW 12000 FEET WITH NO
SIGNIFICANT WEATHER AND/OR OBSTRUCTIONS TO VISIBILITY.

MTZ001>007-043-310600-
WEST OF THE DIVIDE

CITY           SKY/WX    TMP DP  RH WIND       PRES   REMARKS
KALISPELL      CLEAR     66  42  41 VRB5      29.73R
MISSOULA       CLEAR     74  40  29 W6        29.79R
BUTTE          CLEAR     75  38  26 N12       29.91R
MULLAN PASS    CLEAR     63  32  31 SW9       29.95F
DEER LODGE       N/A     77  37  24 N9G20     29.87F
EUREKA           N/A     73  41  31 SE7       29.69S
HAMILTON         N/A     72  46  40 CALM      29.82R
LIBBY            N/A     73  43  33 SE5       29.71R
PLAINS           N/A     70  42  36 MISG      29.77S
RONAN            N/A     63  47  55 CALM      29.84R
$$

MTZ008-052>055-310600-
SOUTHWEST MONTANA

CITY           SKY/WX    TMP DP  RH WIND       PRES   REMARKS
BOZEMAN        CLOUDY    74  46  36 CALM      29.79S
DILLON         CLEAR     70  41  34 S14       29.85R
W YELLOWSTONE  CLOUDY    64  41  42 NE3       30.03S
ENNIS          PTCLDY    73  41  31 S10       29.92S
THREE FORKS      N/A     76   0   5 CALM      29.80R
TWIN BRIDGES     N/A     78  41  26 CALM      29.85R
$$

MTZ009-010-012-014-046-048-049-054-310600-
EAST SLOPES AND CENTRAL MONTANA

CITY           SKY/WX    TMP DP  RH WIND       PRES   REMARKS
CUT BANK         N/A     66  42  41 W12       29.74R
GREAT FALLS    CLEAR     71  36  27 SW12      29.72R
MALMSTROM AFB  CLEAR     80  39  23 W12       29.71R
HELENA         CLEAR     79  39  23 CALM      29.79R
CHOTEAU          N/A     75  34  22 W14       29.77R
CONRAD           N/A     78  44  29 SW14      29.77S
$$

MTZ011-013-016-021-045-047-050-051-310600-
NORTH CENTRAL MONTANA

CITY           SKY/WX    TMP DP  RH WIND       PRES   REMARKS
HAVRE          CLEAR     74  59  59 E15       29.61F
N BAR RANCH      N/A     73  45  35 W9G18     29.82R
CHINOOK          N/A     72  61  68 E12       29.64S
$$

MTZ017>020-022>027-061-062-310600-
NORTHEAST MONTANA

CITY           SKY/WX    TMP DP  RH WIND       PRES   REMARKS
GLASGOW        CLOUDY    69  59  70 SE8       29.68F
JORDAN           N/A     78  55  44 NE10      29.68S
SIDNEY         PTCLDY    75  58  55 NE3       29.73S
WOLF POINT     CLOUDY    72  60  66 NE17      29.71F
PLENTYWOOD       N/A     72  55  56 E9        29.75F
POPLAR           N/A     72  61  68 E10       29.76F
SCOBEY           N/A     72  52  49 SE14      29.75R
$$

MTZ028>42-056>058-310600-
SOUTHCENTRAL AND SOUTHEAST MONTANA

CITY           SKY/WX    TMP DP  RH WIND       PRES   REMARKS
BAKER          CLEAR     67  58  72 S6        29.77S
BILLINGS       CLOUDY    81  46  29 SW9       29.73F
LIVINGSTON     CLEAR     73  43  33 VRB5      29.80S
MILES CITY     CLEAR     85  50  29 SE10      29.69R
EKALAKA          N/A     70  51  50 SE8       29.80R
FORSYTH          N/A     79  48  34 E5        29.67S
LAUREL           N/A     72  47  40 W2        29.76F
ROUNDUP          N/A     79  42  26 CALM      29.68R
$$

REGIONAL REPORTS...DAKOTAS

CITY           SKY/WX    TMP DP  RH WIND       PRES   REMARKS
WILLISTON      CLOUDY    74  55  51 E7        29.76S
MINOT          PTCLDY    72  65  78 SE7       29.78F
DICKINSON      CLEAR     69  59  70 SE12      29.76F
CROSBY           N/A     64  63  94 SE8       29.79F
WATFORD CITY     N/A     72  57  60 E12       29.76F
BISMARCK       CLEAR     71  63  75 SE10      29.79F
GRAND FORKS    CLEAR     68  59  73 S9        29.89R
FARGO          CLEAR     71  56  58 SE13G20   29.91S
BUFFALO SD       N/A     72  57  59 S9        29.74R
RAPID CITY     CLOUDY    63  60  90 E3        29.86F
$$

REGIONAL REPORTS...WYOMING/IDAHO/WASHINGTON

CITY           SKY/WX    TMP DP  RH WIND       PRES   REMARKS
GILLETTE       CLEAR     67  55  65 S7        29.84R
SHERIDAN       CLEAR     69  52  54 S5        29.79F
BUFFALO WY     CLEAR     72  47  40 W7        29.89F
CODY           CLEAR     72  46  40 S5        29.90F
YELLOWSTONE LA   N/A     53  42  66 CALM      30.16S
IDAHO FALLS    PTCLDY    73  47  39 SW10      29.90R
SALMON         CLEAR     79  34  19 CALM      29.79R
BOISE          CLEAR     85  37  18 W3        29.76R
SPOKANE        MOCLDY    77  29  17 SW10      29.71S
$$

REGIONAL REPORTS...ALBERTA

CITY           SKY/WX    TMP DP  RH WIND       PRES   REMARKS
EDMONTON       MOCLDY    57  55  94 W6        29.77F
CALGARY        PTCLDY    55  52  88 NW13      29.84R
LETHBRIDGE     CLEAR     61  54  77 N8        29.77R
MEDICINE HAT   CLEAR     64  57  77 N15G26    29.68R
WATERTON GATE    N/A     55  50  82 E2          N/A
CARDSTON         N/A     55  54  94 NW3         N/A
MILK RIVER       N/A     61  54  77 N26G36      N/A
ONEFOUR          N/A     72  57  60 SE8         N/A
$$

REGIONAL REPORTS...SASKATCHEWAN

CITY           SKY/WX    TMP DP  RH WIND       PRES   REMARKS
SWIFT CURRENT  PTCLDY    64  59  82 S14G21    29.63F
REGINA         PTCLDY    68  57  68 SE16      29.70F
SASKATOON      MOCLDY    64  63  94 E7        29.66F
CYPRESS HILLS    N/A     63  54  72 SE10        N/A
VAL MARIE        N/A     64  57  77 SE10        N/A
ROCKGLEN         N/A     68  54  60 SE12        N/A
$$



USA.gov is the U.S. government's official web portal to all federal, state and local government web resources and services.